Location: Eagan
(44.8336°N, 93.1671°W)
Time: 05:18:03
(UTC+00:00)

BlueWalker 3 - Visible Passes

Search period start: 04 October 2024 00:00
Search period end: 14 October 2024 00:00
Orbit: 473 x 486 km, 53.2° (Epoch: 03 October)

Date Brightness Start Highest point End Pass type
(mag) Time Alt. Az. Time Alt. Az. Time Alt. Az.
04 Oct 4.4 10:09:42 12° SSE 10:11:20 15° SE 10:13:32 10° E visible
04 Oct 1.8 11:45:11 10° WSW 11:48:52 84° NW 11:52:35 10° NE visible
05 Oct 4.5 09:43:17 13° SE 09:43:17 13° SE 09:45:08 10° E visible
05 Oct 1.8 11:17:30 13° SW 11:20:45 87° SE 11:24:28 10° ENE visible
06 Oct 1.8 10:50:54 30° SW 10:52:36 79° SE 10:56:19 10° ENE visible
07 Oct 1.8 10:24:10 67° S 10:24:25 70° SE 10:28:06 10° ENE visible
08 Oct 3.1 09:57:18 40° E 09:57:18 40° E 09:59:52 10° ENE visible
08 Oct 2.9 11:31:31 13° W 11:34:23 31° NNW 11:37:45 10° NE visible
09 Oct 4.5 09:30:20 19° ENE 09:30:20 19° ENE 09:31:34 10° ENE visible
09 Oct 2.8 11:04:33 23° WNW 11:06:04 33° NNW 11:09:29 10° NE visible
10 Oct 2.7 10:37:29 35° NNW 10:37:44 35° NNW 10:41:11 10° NE visible
11 Oct 3.3 10:10:21 31° NNE 10:10:21 31° NNE 10:12:50 10° NE visible
11 Oct 3.6 11:45:07 10° NW 11:48:04 22° N 11:51:00 10° NE visible
12 Oct 4.3 09:43:09 20° NE 09:43:09 20° NE 09:44:28 10° NE visible
12 Oct 3.6 11:17:20 13° NW 11:19:37 22° N 11:22:34 10° NE visible
13 Oct 5.2 09:15:53 11° NE 09:15:53 11° NE 09:16:03 10° NE visible
13 Oct 3.6 10:50:04 20° NNW 10:51:08 22° N 10:54:06 10° NE visible
